Back to catalog

STARLINK-30086

AliveCommunicationsVLEO
NORAD 56297·PAYLOAD·🇺🇸 United States

Launched Apr 19, 2023 from Cape Canaveral Space Force Station

Loading…

Next Passes (next 24 hours)

TLE

FreshSource: CelesTrak SupGP

Epoch: Sep 14, 2026, 13:48 UTC

1 56297C 23056M   26257.57548611 -.00025656  00000+0 -92939-3 0  2571
2 56297  43.0024 222.3142 0001417 272.6945 147.8687 15.27586731    15

Track STARLINK-30086 in real time with AllMySat

Download on the App Store